Location: Frankfurt am Main
(50.1109°N, 8.6821°E)
Time: 05:13:31
(UTC+02:00)

Envisat - Visible Passes

Search period start: 17 October 2021 00:00
Search period end: 27 October 2021 00:00
Orbit: 764 x 766 km, 98.2° (Epoch: 16 October)

Date Brightness Start Highest point End Pass type
(mag) Time Alt. Az. Time Alt. Az. Time Alt. Az.
17 Oct 5.3 05:39:57 10° NE 05:44:08 25° E 05:48:18 10° SSE visible
18 Oct 6.1 05:04:41 10° ENE 05:06:48 12° E 05:08:55 10° ESE visible
18 Oct 3.1 06:41:32 10° NNE 06:46:40 81° ESE 06:51:44 10° SSW visible
19 Oct 4.4 06:04:53 10° NNE 06:09:41 40° E 06:14:26 10° SSE visible
19 Oct 6.2 19:05:30 10° SW 19:08:32 16° W 19:11:37 10° NW visible
20 Oct 5.6 05:28:43 10° NE 05:32:30 20° E 05:36:14 10° SE visible
20 Oct 3.0 07:06:55 10° N 07:11:58 64° WNW 07:16:58 10° SSW visible
21 Oct 3.4 06:30:02 10° NNE 06:35:07 66° ESE 06:40:10 10° S visible
22 Oct 4.8 05:53:29 10° NNE 05:58:04 33° E 06:02:37 10° SSE visible
22 Oct 6.0 18:53:14 10° SW 18:56:52 20° W 19:00:31 10° NW visible
23 Oct 5.8 05:17:36 10° NE 05:20:49 17° E 05:24:01 10° SE visible
23 Oct 2.9 06:55:21 10° NNE 07:00:27 79° WNW 07:05:32 10° SSW visible
24 Oct 3.8 06:18:33 10° NNE 06:23:33 53° E 06:28:30 10° S visible
24 Oct 6.4 19:20:44 10° WSW 19:22:34 12° W 19:24:23 10° WNW visible
25 Oct 5.1 05:42:08 10° NE 05:46:26 27° E 05:50:42 10° SSE visible
25 Oct 3.2 07:20:48 10° N 07:25:42 49° WNW 07:30:35 10° SW visible
25 Oct 5.8 18:41:08 10° SW 18:45:12 24° W 18:49:18 10° NW visible
26 Oct 6.1 05:06:41 10° ENE 05:09:07 13° E 05:11:34 10° ESE visible
26 Oct 3.0 06:43:48 10° NNE 06:48:56 86° ESE 06:54:01 10° SSW visible
